User: anonymous   Login
Location: Newark
(0.5333°S, 166.9167°E)
Time: 12:48:44
(UTC+00:00)
Language:

BUGSAT 1 - Orbit

View from above orbital plane
View from above orbital plane
View from above satellite
View from above satellite

Ground track
Ground track

The orbit data is extracted from the following two-line orbital elements,

1 40014U 14033E   20296.18515005  .00000260  00000-0  29052-4 0  9994
2 40014  98.0800 261.7710 0030508 231.8191 128.0281 14.95526259345957
Epoch (UTC): 22 October 2020 04:26:36
Eccentricity: 0.0030508
inclination: 98.0800°
perigee height: 559 km
apogee height: 602 km
right ascension of ascending node: 261.7710°
argument of perigee: 231.8191°
revolutions per day: 14.95526259
mean anomaly at epoch: 128.0281°
orbit number at epoch: 34595

The dashed part of the orbit path shows where the satellite is in the earth's shadow,  

DLR